Stations météo

réclame
Mon MeteoGroup
Deauville, France (7031): Température de l'air & dewpoint: 12.01.2019 13:00:00 - 18.01.2019 13:00:00 (CET)Deauville, France (7031): Température de l'air 5cm: 12.01.2019 13:00:00 - 18.01.2019 13:00:00 (CET)Deauville, France (7031): Vitesse du vent & gusts: 12.01.2019 13:00:00 - 18.01.2019 13:00:00 (CET)Deauville, France (7031): Direction du vent: 12.01.2019 13:00:00 - 18.01.2019 13:00:00 (CET)Deauville, France (7031): reduced air pressure: 12.01.2019 13:00:00 - 18.01.2019 13:00:00 (CET)Deauville, France (7031): visibility: 12.01.2019 13:00:00 - 18.01.2019 13:00:00 (CET)Deauville, France (7031): Quantités de précipitations: 12.01.2019 13:00:00 - 18.01.2019 13:00:00 (CET)
Date & Time tt [°C] td [°C] tt 5cm [°C] ff [km/h] ff [knt] fx [km/h] fx [knt] dd ppp [hPa] vv [km] rr [mm]
18.01.2019 13:00:00 - - - - - - - - - - -
18.01.2019 12:00:00 2,5 -1,5 1,1 10 5 18 10 SSE 1019,5 50 0,0
18.01.2019 11:00:00 1,5 -2,8 -0,5 8 4 21 11 S 1020,1 58 0,0
18.01.2019 10:00:00 1,0 -2,6 -6,2 11 6 19 11 S 1019,9 59 0,0
18.01.2019 09:00:00 -2,1 -4,3 -6,3 11 6 16 9 S 1020,3 54 0,0
18.01.2019 08:00:00 -0,1 -3,1 -6,0 12 6 17 9 S 1020,0 59 0,0
18.01.2019 07:00:00 -1,5 -2,8 -5,7 10 6 14 7 S 1019,9 55 0,0
18.01.2019 06:00:00 -1,7 -3,4 -4,8 10 5 12 6 S 1020,2 42 0,0
18.01.2019 05:00:00 -1,3 -3,0 -5,2 5 3 14 8 SSE 1020,6 29 0,0
18.01.2019 04:00:00 -1,1 -3,1 -5,4 6 4 9 5 SSW 1020,8 40 0,0
18.01.2019 03:00:00 -0,9 -3,1 -5,5 3 2 11 6 S 1021,0 41 0,0
18.01.2019 02:00:00 -0,8 -2,7 -5,3 5 3 8 5 S 1020,8 52 0,0
18.01.2019 01:00:00 -0,3 -2,5 -5,6 2 1 4 2 S 1020,7 47 0,0
18.01.2019 00:00:00 -0,5 -2,9 -5,6 4 2 6 3 S 1020,8 58 0,0
17.01.2019 23:00:00 -0,9 -3,4 -5,8 3 2 11 6 W 1020,6 59 0,0
17.01.2019 22:00:00 1,0 -3,5 -5,2 6 3 11 6 N 1020,0 60 0,0
17.01.2019 21:00:00 2,0 -3,5 -3,7 3 2 16 9 NNW 1019,7 60 0,0
17.01.2019 20:00:00 2,7 -3,2 -1,2 6 3 19 10 NNW 1019,0 60 0,0
17.01.2019 19:00:00 3,0 -3,4 -0,2 6 3 26 14 NNW 1018,3 60 0,0
17.01.2019 18:00:00 3,4 -3,4 1,1 13 7 31 17 NNW 1017,5 60 0,0
17.01.2019 17:00:00 4,3 -3,7 2,5 15 8 37 20 NNW 1016,6 56 0,0
17.01.2019 16:00:00 5,1 -2,5 4,4 18 10 39 21 NNW 1015,8 45 0,0
17.01.2019 15:00:00 5,7 -2,4 3,3 16 9 39 21 NNW 1014,5 48 0,0
17.01.2019 14:00:00 4,6 1,4 1,8 20 11 47 26 NNW 1014,0 7 0,6
17.01.2019 13:00:00 6,0 2,3 5,7 21 11 40 22 NNW 1013,0 20 0,0
17.01.2019 12:00:00 6,8 2,3 4,9 17 9 36 19 NW 1012,6 46 0,0
17.01.2019 11:00:00 6,4 1,7 3,5 17 9 39 21 WNW 1012,1 58 0,0
17.01.2019 10:00:00 5,6 2,1 0,9 16 8 45 24 NW 1011,3 53 0,4
17.01.2019 09:00:00 5,9 2,0 4,1 19 11 49 26 NW 1010,2 59 0,0
17.01.2019 08:00:00 5,8 2,6 4,1 25 13 62 34 WNW 1008,8 59 0,2
17.01.2019 07:00:00 5,9 3,7 3,5 29 15 51 28 WNW 1007,5 18 0,8
17.01.2019 06:00:00 4,6 3,3 2,7 19 10 32 17 SW 1006,8 58 0,0
17.01.2019 05:00:00 4,5 3,2 2,8 15 8 40 21 SW 1006,8 60 0,0
17.01.2019 04:00:00 5,0 3,5 3,6 22 12 44 24 WSW 1007,1 4,3 0,8
17.01.2019 03:00:00 4,8 3,6 3,4 14 7 49 27 SW 1007,1 60 0,4
17.01.2019 02:00:00 4,9 3,9 2,9 13 7 26 14 SSW 1007,0 60 0,0
17.01.2019 01:00:00 5,7 4,7 4,9 13 7 24 13 SW 1007,5 52 0,0
17.01.2019 00:00:00 6,1 5,5 5,4 11 6 28 15 SSW 1007,6 14 0,2
16.01.2019 23:00:00 6,7 6,1 6,2 11 6 24 13 WSW 1007,5 7 0,6
16.01.2019 22:00:00 6,8 6,4 5,9 16 9 32 18 W 1007,4 10 0,6
16.01.2019 21:00:00 6,2 5,6 5,5 17 9 36 20 SW 1007,2 5 0,2
16.01.2019 20:00:00 6,0 4,5 5,2 20 11 41 22 SSW 1006,9 8 0,0
16.01.2019 19:00:00 5,8 4,4 5,2 23 12 39 21 SSW 1007,0 14 0,0
16.01.2019 18:00:00 5,5 4,3 5,2 22 12 40 22 S 1007,3 8 0,0
16.01.2019 17:00:00 6,6 3,6 6,3 22 12 45 25 SSW 1007,7 29 0,0
16.01.2019 16:00:00 6,7 3,5 7,0 24 13 38 20 SSW 1008,0 29 0,0
16.01.2019 15:00:00 6,7 3,3 6,9 25 13 44 24 SSW 1008,6 32 0,0
16.01.2019 14:00:00 6,4 2,7 6,5 23 13 46 25 SSW 1008,9 32 0,0
16.01.2019 13:00:00 6,0 2,3 6,4 22 12 41 22 SSW 1010,2 40 0,0
16.01.2019 12:00:00 5,9 1,8 5,4 16 8 29 16 S 1011,5 36 0,0
16.01.2019 11:00:00 4,7 1,2 4,0 14 8 27 14 S 1012,6 28 0,0
16.01.2019 10:00:00 4,1 1,1 3,3 13 7 24 13 S 1013,2 29 0,0
16.01.2019 09:00:00 3,7 0,9 2,9 15 8 27 15 S 1013,5 33 0,0
16.01.2019 08:00:00 4,0 1,0 2,9 15 8 27 15 SSW 1013,9 33 0,0
16.01.2019 07:00:00 4,6 1,4 4,0 13 7 23 12 S 1014,3 29 0,0
16.01.2019 06:00:00 4,7 1,7 4,1 14 8 29 16 SSW 1015,1 29 0,0
16.01.2019 05:00:00 4,8 1,6 4,3 17 9 30 16 SW 1015,8 29 0,0
16.01.2019 04:00:00 5,0 1,8 4,4 13 7 30 16 SSW 1016,7 29 0,0
16.01.2019 03:00:00 5,2 1,7 4,6 19 10 32 17 SSW 1017,4 31 0,0
16.01.2019 02:00:00 5,4 2,2 4,8 15 8 34 18 S 1018,0 27 0,0
16.01.2019 01:00:00 5,6 2,4 4,9 19 10 31 17 SSW 1018,8 33 0,0
16.01.2019 00:00:00 5,7 2,9 5,2 16 9 26 14 S 1019,4 48 0,0
15.01.2019 23:00:00 5,9 2,7 5,3 14 8 31 17 SSW 1020,1 55 0,0
15.01.2019 22:00:00 6,2 2,8 5,3 16 8 25 14 S 1020,6 59 0,0
15.01.2019 21:00:00 6,3 3,1 5,4 11 6 20 11 SSW 1020,9 59 0,0
15.01.2019 20:00:00 6,6 3,4 5,5 10 5 18 10 S 1021,3 53 0,0
15.01.2019 19:00:00 6,6 4,1 5,5 10 6 22 12 SSW 1021,7 55 0,0
15.01.2019 18:00:00 6,8 4,6 6,0 11 6 22 12 SW 1022,0 6 0,0
15.01.2019 17:00:00 7,4 4,4 7,1 11 6 22 12 SW 1022,3 54 0,0
15.01.2019 16:00:00 7,8 4,6 8,0 13 7 26 14 W 1022,3 43 0,0
15.01.2019 15:00:00 8,0 3,8 8,3 14 8 26 14 W 1022,6 57 0,0
15.01.2019 14:00:00 8,1 3,5 8,9 13 7 24 13 WSW 1023,1 57 0,0
15.01.2019 13:00:00 7,9 3,0 8,6 16 9 27 15 SW 1023,5 46 0,0
15.01.2019 12:00:00 7,5 2,8 7,2 16 9 27 14 SW 1024,4 55 0,0
15.01.2019 11:00:00 6,9 3,5 6,1 14 7 23 12 WSW 1025,0 46 0,0
15.01.2019 10:00:00 6,6 2,3 5,0 10 6 17 9 WSW 1025,1 59 0,0
15.01.2019 09:00:00 6,1 2,0 4,9 9 5 14 7 SW 1024,8 60 0,0
15.01.2019 08:00:00 6,4 2,3 5,2 9 5 23 12 SW 1024,6 60 0,0
15.01.2019 07:00:00 6,7 2,8 5,3 13 7 23 12 WSW 1024,6 59 0,0
15.01.2019 06:00:00 6,6 2,3 5,0 12 6 19 10 SW 1025,0 58 0,0
15.01.2019 05:00:00 6,4 2,8 5,3 8 4 11 6 SW 1025,2 53 0,0
15.01.2019 04:00:00 6,8 3,0 5,5 9 5 16 9 WSW 1025,6 45 0,0
15.01.2019 03:00:00 6,9 3,5 5,8 11 6 17 9 WSW 1025,6 38 0,0
15.01.2019 02:00:00 7,0 3,1 5,6 11 6 19 10 WSW 1025,4 52 0,0
15.01.2019 01:00:00 6,8 3,8 5,7 9 5 15 8 WSW 1025,4 40 0,0
15.01.2019 00:00:00 6,7 4,2 5,7 8 4 18 10 WSW 1025,5 34 0,0
14.01.2019 23:00:00 7,4 1,7 5,9 11 6 20 11 W 1025,3 60 0,0
14.01.2019 22:00:00 7,2 1,9 6,2 13 7 22 12 W 1025,2 60 0,0
14.01.2019 21:00:00 7,7 3,2 6,5 10 5 19 11 WNW 1025,3 54 0,0
14.01.2019 20:00:00 7,7 3,4 6,6 8 5 19 10 WNW 1025,2 54 0,0
14.01.2019 19:00:00 7,7 3,4 6,7 8 4 21 12 NW 1025,1 56 0,0
14.01.2019 18:00:00 7,7 3,5 6,6 9 5 19 10 NW 1024,6 52 0,0
14.01.2019 17:00:00 7,8 3,8 6,9 8 4 22 12 NW 1024,4 44 0,0
14.01.2019 16:00:00 7,7 3,2 6,9 14 8 29 16 NNW 1023,9 50 0,0
14.01.2019 15:00:00 8,3 3,5 8,4 13 7 34 18 NNW 1023,4 54 0,0
14.01.2019 14:00:00 8,5 3,5 8,8 17 9 33 18 NNW 1023,3 44 0,0
14.01.2019 13:00:00 8,4 3,8 8,4 15 8 38 20 NW 1023,1 45 0,0
14.01.2019 12:00:00 8,5 3,5 8,4 19 11 44 24 NNW 1022,8 20 0,0
14.01.2019 11:00:00 8,4 2,8 7,5 18 10 37 20 NNW 1022,5 48 0,0
14.01.2019 10:00:00 8,2 2,6 6,6 17 9 36 19 NNW 1021,9 49 0,0
14.01.2019 09:00:00 8,3 2,9 7,5 19 10 42 23 NNW 1021,2 44 0,0
14.01.2019 08:00:00 8,2 3,6 6,4 17 9 37 20 NNW 1020,5 20 0,0
14.01.2019 07:00:00 7,8 3,3 6,3 17 9 41 22 NW 1020,1 38 0,0
14.01.2019 06:00:00 8,2 3,6 6,6 18 10 44 24 NW 1019,6 35 0,0
14.01.2019 05:00:00 8,3 2,3 6,3 21 12 40 22 NW 1019,0 49 0,0
14.01.2019 04:00:00 8,4 2,4 6,7 20 11 49 26 NW 1018,7 49 0,0
14.01.2019 03:00:00 9,0 4,2 8,0 21 11 49 27 NW 1018,2 38 0,0
14.01.2019 02:00:00 9,5 6,6 8,8 19 10 52 28 NW 1017,6 19 0,0
14.01.2019 01:00:00 9,4 8,0 8,9 25 13 51 27 WNW 1017,3 14 0,0
14.01.2019 00:00:00 9,3 8,1 8,5 27 15 49 26 WNW 1017,3 15 0,0
13.01.2019 23:00:00 9,3 8,2 8,8 26 14 55 30 W 1017,0 13 0,0
13.01.2019 22:00:00 9,1 8,2 8,7 34 18 52 28 W 1016,5 11 0,0
13.01.2019 21:00:00 9,1 8,2 8,6 36 20 58 31 W 1016,6 8 0,0
13.01.2019 20:00:00 9,2 7,8 8,9 39 21 62 34 W 1017,0 12 0,0
13.01.2019 19:00:00 9,1 7,4 8,9 37 20 59 32 W 1017,0 15 0,0
13.01.2019 18:00:00 9,2 7,3 8,9 37 20 59 32 W 1016,9 15 0,0
13.01.2019 17:00:00 9,2 7,5 9,0 37 20 61 33 W 1017,2 17 0,0
13.01.2019 16:00:00 9,6 7,5 9,4 40 22 58 32 W 1016,8 19 0,0
13.01.2019 15:00:00 9,2 7,6 9,4 35 19 57 31 W 1018,2 18 0,0
13.01.2019 14:00:00 9,4 7,7 9,7 33 18 52 28 W 1018,4 17 0,0
13.01.2019 13:00:00 9,5 7,8 9,4 32 17 52 28 W 1019,3 17 0,0
13.01.2019 12:00:00 9,3 7,9 9,4 29 16 52 28 W 1020,2 13 0,0
13.01.2019 11:00:00 9,4 8,8 9,3 33 18 56 30 WSW 1020,3 10 0,0
13.01.2019 10:00:00 9,3 8,7 9,1 33 18 54 29 W 1020,6 12 0,0
13.01.2019 09:00:00 9,3 8,5 8,8 31 17 45 24 WSW 1020,3 14 0,0
13.01.2019 08:00:00 9,0 8,4 8,7 29 16 45 24 WSW 1020,5 12 0,0
13.01.2019 07:00:00 8,9 8,1 8,4 31 17 51 28 W 1021,1 12 0,0
13.01.2019 06:00:00 8,7 7,9 8,4 24 13 46 25 WSW 1021,5 13 0,0
13.01.2019 05:00:00 8,8 8,0 8,4 30 16 47 25 W 1022,0 13 0,0
13.01.2019 04:00:00 9,0 8,4 8,3 27 15 47 25 W 1022,5 11 0,0
13.01.2019 03:00:00 8,5 7,7 7,9 27 15 45 24 W 1022,6 12 0,0
13.01.2019 02:00:00 8,2 7,4 7,8 24 13 44 24 W 1022,9 16 0,0
13.01.2019 01:00:00 8,1 7,7 8,0 26 14 46 25 W 1023,4 6 0,2
13.01.2019 00:00:00 8,5 7,9 8,0 24 13 42 23 W 1023,8 7 0,2
12.01.2019 23:00:00 8,4 7,5 7,8 26 14 41 22 W 1024,2 11 0,2
12.01.2019 22:00:00 8,3 7,2 7,5 23 12 44 24 W 1023,6 16 0,0
12.01.2019 21:00:00 8,3 7,1 7,6 25 14 45 24 W 1023,6 14 0,0
12.01.2019 20:00:00 8,5 7,6 8,0 25 14 48 26 W 1024,3 16 0,0
12.01.2019 19:00:00 8,5 8,1 8,1 31 17 50 27 W 1024,0 15 0,0
12.01.2019 18:00:00 8,5 8,1 8,4 33 18 48 26 W 1024,2 14 0,0
12.01.2019 17:00:00 8,6 8,3 8,5 29 16 51 28 W 1024,9 13 0,0
12.01.2019 16:00:00 8,6 8,3 8,3 30 16 51 27 W 1025,2 10 0,2
12.01.2019 15:00:00 8,3 8,0 8,1 27 15 47 25 W 1025,4 16 0,0
12.01.2019 14:00:00 8,2 7,8 8,2 26 14 44 24 W 1026,2 3,3 0,0
12.01.2019 13:00:00 8,0 7,4 8,0 23 13 42 23 W 1027,2 4,0 0,2

tt = Température de l'air
td = dewpoint
tt 5cm = Température de l'air 5cm
ff = Vitesse du vent
fx = gusts
dd = Direction du vent
ppp = reduced air pressure
vv = visibility
rr = Quantités de précipitations

stations d'obs. à proximité